Location: Mountain View
(37.3861°N, 122.0839°W)
Time: 01:43:01
(UTC-07:00)

Tiangong 1 - Visible Passes

Search period start: 27 June 2017 00:00
Search period end: 07 July 2017 00:00
Orbit: 321 x 344 km, 42.8° (Epoch: 26 June)

Date Brightness Start Highest point End Pass type
(mag) Time Alt. Az. Time Alt. Az. Time Alt. Az.
27 Jun 2.8 21:57:58 10° NW 22:00:26 26° N 22:02:40 11° ENE visible
27 Jun 4.0 23:33:30 10° WNW 23:33:48 12° WNW 23:33:48 12° WNW visible
28 Jun 2.1 22:17:14 10° NW 22:19:51 35° NNE 22:20:44 27° NE visible
29 Jun 2.7 21:00:50 10° NW 21:03:18 26° N 21:05:44 10° ENE visible
29 Jun 1.4 22:36:21 10° WNW 22:38:44 56° NW 22:38:44 56° NW visible
30 Jun 2.1 21:20:01 10° NW 21:22:39 35° NNE 21:25:16 10° E visible
30 Jun 3.1 22:55:34 10° WNW 22:56:43 21° W 22:56:43 21° W visible
01 Jul 0.9 21:39:03 10° WNW 21:41:51 68° NNE 21:43:32 21° ESE visible
02 Jul 1.2 21:58:10 10° WNW 22:00:52 45° SSW 22:01:29 37° SSE visible
03 Jul 2.9 22:17:45 10° W 22:19:26 17° SW 22:19:26 17° SW visible
04 Jul 1.3 21:00:34 10° WNW 21:03:19 47° SSW 21:06:01 10° SE visible
05 Jul 2.9 21:20:02 10° W 21:22:03 18° SW 21:24:03 10° S visible
